| time (UTC) | temp F | wind direction | speed MPH | gust MPH | rain 1hr in | rain 24hr in | rain mn in | humidity % | barometer mb |
| 20260905081519 | 75 | 6 | 5.0 | 10.0 | 0.00 | 0.00 | 0.00 | 77 | 1009.1 |
| 20260905080129 | 75 | 354 | 3.0 | 8.0 | 0.00 | 0.00 | 0.00 | 78 | 1009.2 |
| 20260905074600 | 75 | 356 | 5.0 | 9.0 | 0.00 | 0.00 | 0.00 | 77 | 1009.1 |
| 20260905073100 | 76 | 2 | 5.0 | 10.0 | 0.00 | 0.00 | 0.00 | 77 | 1009.2 |
| 20260905071552 | 76 | 344 | 5.0 | 12.0 | 0.00 | 0.00 | 0.00 | 77 | 1009.1 |
| 20260905070049 | 76 | 349 | 6.0 | 10.0 | 0.00 | 0.00 | 0.00 | 77 | 1009.2 |
| 20260905064528 | 76 | 41 | 4.0 | 11.0 | 0.00 | 0.00 | 0.00 | 77 | 1009.1 |
| 20260905063022 | 76 | 39 | 7.0 | 15.0 | 0.00 | 0.00 | 0.00 | 77 | 1009.2 |
| 20260905061525 | 77 | 6 | 6.0 | 15.0 | 0.00 | 0.00 | 0.00 | 76 | 1009.3 |
| 20260905060120 | 77 | 12 | 6.0 | 12.0 | 0.00 | 0.00 | 0.00 | 76 | 1009.3 |
| 20260905054559 | 77 | 30 | 6.0 | 12.0 | 0.00 | 0.02 | 0.00 | 75 | 1009.4 |
| 20260905053108 | 77 | 30 | 5.0 | 13.0 | 0.00 | 0.02 | 0.00 | 76 | 1009.6 |
| 20260905051553 | 77 | 358 | 5.0 | 13.0 | 0.00 | 0.02 | 0.00 | 74 | 1009.7 |
| 20260905050048 | 78 | 30 | 5.0 | 12.0 | 0.00 | 0.02 | 0.00 | 75 | 1009.8 |
| 20260905044533 | 78 | 327 | 7.0 | 13.0 | 0.00 | 0.02 | 0.00 | 73 | 1010.0 |
| 20260905043023 | 79 | 356 | 5.0 | 10.0 | 0.00 | 0.02 | 0.00 | 75 | 1010.0 |
| 20260905041519 | 79 | 14 | 5.0 | 10.0 | 0.00 | 0.02 | 0.00 | 75 | 1010.3 |
| 20260905040117 | 79 | 11 | 7.0 | 11.0 | 0.00 | 0.02 | 0.00 | 74 | 1010.2 |
| 20260905034611 | 79 | 321 | 4.0 | 9.0 | 0.00 | 0.02 | 0.02 | 76 | 1010.2 |
| 20260905033112 | 79 | 335 | 3.0 | 9.0 | 0.00 | 0.02 | 0.02 | 76 | 1010.0 |
| 20260905031557 | 80 | 342 | 4.0 | 10.0 | 0.00 | 0.02 | 0.02 | 76 | 1010.1 |
| 20260905030022 | 80 | 354 | 4.0 | 9.0 | 0.00 | 0.02 | 0.02 | 77 | 1010.0 |
| 20260905024518 | 80 | 342 | 4.0 | 9.0 | 0.00 | 0.02 | 0.02 | 76 | 1010.0 |
| 20260905023014 | 80 | 352 | 3.0 | 8.0 | 0.00 | 0.02 | 0.02 | 79 | 1009.9 |
| 20260905021515 | 80 | 337 | 4.0 | 9.0 | 0.00 | 0.02 | 0.02 | 78 | 1010.0 |
| 20260905020114 | 80 | 343 | 4.0 | 8.0 | 0.00 | 0.02 | 0.02 | 81 | 1009.9 |
| 20260905014553 | 80 | 360 | 3.0 | 9.0 | 0.00 | 0.02 | 0.02 | 83 | 1010.1 |
| 20260905013050 | 81 | 26 | 4.0 | 8.0 | 0.00 | 0.02 | 0.02 | 82 | 1010.0 |
| 20260905011549 | 81 | 334 | 2.0 | 6.0 | 0.00 | 0.02 | 0.02 | 83 | 1010.2 |
| 20260905010049 | 81 | 342 | 1.0 | 7.0 | 0.00 | 0.02 | 0.02 | 84 | 1009.8 |
| 20260905004525 | 81 | 323 | 3.0 | 6.0 | 0.00 | 0.02 | 0.02 | 84 | 1009.8 |
| 20260905003020 | 81 | 356 | 2.0 | 5.0 | 0.00 | 0.02 | 0.02 | 83 | 1009.7 |
| 20260905001516 | 81 | 322 | 1.0 | 7.0 | 0.00 | 0.02 | 0.02 | 82 | 1009.6 |
| 20260905000146 | 82 | 327 | 2.0 | 6.0 | 0.00 | 0.02 | 0.02 | 82 | 1009.7 |
| 20260904234555 | 82 | 318 | 3.0 | 8.0 | 0.00 | 0.02 | 0.02 | 81 | 1009.8 |
| 20260904233051 | 82 | 343 | 3.0 | 6.0 | 0.00 | 0.02 | 0.02 | 81 | 1009.8 |
| 20260904231548 | 82 | 290 | 1.0 | 7.0 | 0.00 | 0.02 | 0.02 | 79 | 1010.0 |
| 20260904224525 | 83 | 325 | 6.0 | 13.0 | 0.00 | 0.02 | 0.02 | 76 | 1010.0 |
| 20260904223021 | 84 | 1 | 4.0 | 9.0 | 0.00 | 0.02 | 0.02 | 76 | 1009.9 |
| 20260904221517 | 84 | 293 | 6.0 | 14.0 | 0.00 | 0.02 | 0.02 | 74 | 1009.9 |
| 20260904220119 | 84 | 340 | 4.0 | 14.0 | 0.00 | 0.02 | 0.02 | 74 | 1009.7 |
| 20260904214600 | 84 | 324 | 4.0 | 9.0 | 0.00 | 0.02 | 0.02 | 76 | 1009.8 |
| 20260904213054 | 84 | 282 | 0.0 | 7.0 | 0.00 | 0.02 | 0.02 | 78 | 1009.8 |
| 20260904211550 | 84 | 238 | 4.0 | 8.0 | 0.00 | 0.02 | 0.02 | 78 | 1009.7 |
| 20260904210047 | 83 | 150 | 3.0 | 8.0 | 0.00 | 0.02 | 0.02 | 80 | 1009.7 |
| 20260904204531 | 83 | 221 | 7.0 | 13.0 | 0.00 | 0.02 | 0.02 | 81 | 1009.9 |
| 20260904203024 | 82 | 151 | 7.0 | 12.0 | 0.00 | 0.02 | 0.02 | 82 | 1010.1 |
| 20260904201521 | 82 | 148 | 6.0 | 11.0 | 0.00 | 0.02 | 0.02 | 83 | 1010.3 |
| 20260904200122 | 82 | 188 | 4.0 | 11.0 | 0.00 | 0.02 | 0.02 | 82 | 1010.3 |
| 20260904194601 | 82 | 186 | 3.0 | 6.0 | 0.00 | 0.02 | 0.02 | 82 | 1010.5 |
| 20260904193057 | 82 | 165 | 1.0 | 6.0 | 0.00 | 0.02 | 0.02 | 81 | 1010.7 |
| 20260904191553 | 82 | 232 | 3.0 | 6.0 | 0.00 | 0.02 | 0.02 | 81 | 1010.9 |
| 20260904190053 | 83 | 227 | 2.0 | 8.0 | 0.00 | 0.02 | 0.02 | 80 | 1010.7 |
| 20260904184529 | 82 | 149 | 3.0 | 7.0 | 0.00 | 0.02 | 0.02 | 80 | 1010.8 |
| 20260904183026 | 83 | 132 | 0.0 | 5.0 | 0.00 | 0.02 | 0.02 | 78 | 1011.0 |
| 20260904181531 | 82 | 163 | 3.0 | 6.0 | 0.00 | 0.02 | 0.02 | 81 | 1011.0 |
| 20260904180003 | 83 | 133 | 1.0 | 5.0 | 0.00 | 0.02 | 0.02 | 76 | 1011.0 |
| 20260904174604 | 84 | 134 | 4.0 | 8.0 | 0.00 | 0.02 | 0.02 | 72 | 1011.0 |
| 20260904173103 | 83 | 97 | 2.0 | 8.0 | 0.00 | 0.02 | 0.02 | 72 | 1010.9 |
| 20260904171613 | 83 | 101 | 4.0 | 7.0 | 0.00 | 0.02 | 0.02 | 74 | 1010.9 |
| 20260904170054 | 84 | 101 | 4.0 | 9.0 | 0.00 | 0.02 | 0.02 | 74 | 1010.8 |
| 20260904164532 | 84 | 103 | 4.0 | 9.0 | 0.00 | 0.02 | 0.02 | 73 | 1010.7 |
| 20260904163028 | 85 | 356 | 4.0 | 13.0 | 0.00 | 0.02 | 0.02 | 69 | 1010.7 |
| 20260904161523 | 85 | 339 | 7.0 | 15.0 | 0.00 | 0.02 | 0.02 | 70 | 1010.9 |
| 20260904160002 | 84 | 342 | 5.0 | 14.0 | 0.00 | 0.02 | 0.02 | 73 | 1011.0 |
| 20260904154604 | 83 | 8 | 8.0 | 14.0 | 0.00 | 0.02 | 0.02 | 74 | 1011.2 |
| 20260904153112 | 83 | 7 | 10.0 | 17.0 | 0.00 | 0.02 | 0.02 | 74 | 1011.2 |
| 20260904151558 | 83 | 355 | 10.0 | 16.0 | 0.00 | 0.02 | 0.02 | 76 | 1011.2 |
| 20260904150054 | 82 | 17 | 10.0 | 17.0 | 0.00 | 0.02 | 0.02 | 78 | 1011.1 |
| 20260904144532 | 82 | 61 | 9.0 | 15.0 | 0.00 | 0.02 | 0.02 | 79 | 1011.2 |
| 20260904143029 | 81 | 37 | 9.0 | 17.0 | 0.00 | 0.02 | 0.02 | 81 | 1011.2 |
| 20260904141523 | 81 | 11 | 10.0 | 17.0 | 0.00 | 0.02 | 0.02 | 82 | 1011.3 |
| 20260904140003 | 80 | 8 | 9.0 | 18.0 | 0.00 | 0.02 | 0.02 | 84 | 1011.1 |
| 20260904134603 | 80 | 315 | 8.0 | 16.0 | 0.00 | 0.02 | 0.02 | 85 | 1011.0 |
| 20260904133059 | 79 | 302 | 6.0 | 16.0 | 0.00 | 0.02 | 0.02 | 89 | 1010.7 |
| 20260904131602 | 79 | 323 | 8.0 | 17.0 | 0.00 | 0.02 | 0.02 | 90 | 1010.9 |
| 20260904130049 | 78 | 328 | 8.0 | 14.0 | 0.00 | 0.02 | 0.02 | 93 | 1010.8 |
| 20260904124525 | 77 | 295 | 4.0 | 11.0 | 0.00 | 0.02 | 0.02 | 95 | 1010.8 |
| 20260904123017 | 76 | 281 | 6.0 | 12.0 | 0.00 | 0.02 | 0.02 | 96 | 1010.7 |
| 20260904121511 | 76 | 315 | 4.0 | 11.0 | 0.00 | 0.02 | 0.02 | 96 | 1010.8 |
| 20260904120110 | 75 | 287 | 8.0 | 15.0 | 0.00 | 0.02 | 0.02 | 97 | 1010.7 |
| 20260904114548 | 75 | 291 | 8.0 | 13.0 | 0.00 | 0.02 | 0.02 | 98 | 1010.7 |
| 20260904113044 | 75 | 314 | 9.0 | 12.0 | 0.00 | 0.02 | 0.02 | 99 | 1010.5 |
| 20260904111538 | 0 | 0.0 | 0.0 | 0.00 | 0.02 | 0.02 | 1010.3 | ||
| 20260904110016 | 0 | 0.0 | 0.0 | 0.00 | 0.02 | 0.02 | 1010.4 | ||
| 20260904104513 | 0 | 0.0 | 0.0 | 0.00 | 0.02 | 0.02 | 1010.0 | ||
| 20260904103008 | 0 | 0.0 | 0.0 | 0.00 | 0.02 | 0.02 | 1010.1 | ||
| 20260904101507 | 0 | 0.0 | 0.0 | 0.00 | 0.02 | 0.02 | 1010.0 | ||
| 20260904100112 | 0 | 0.0 | 0.0 | 0.00 | 0.02 | 0.02 | 1010.1 | ||
| 20260904094602 | 0 | 0.0 | 0.0 | 0.00 | 0.02 | 0.02 | 1009.9 | ||
| 20260904093045 | 0 | 0.0 | 0.0 | 0.00 | 0.02 | 0.02 | 1010.0 | ||
| 20260904091552 | 0 | 269 | 9.0 | 15.0 | 0.00 | 0.02 | 0.02 | 1010.0 | |
| 20260904090019 | 75 | 269 | 10.0 | 15.0 | 0.00 | 0.02 | 0.02 | 97 | 1009.9 |
| 20260904084515 | 75 | 226 | 10.0 | 18.0 | 0.00 | 0.02 | 0.02 | 97 | 1009.9 |
| 20260904083021 | 76 | 283 | 9.0 | 14.0 | 0.00 | 0.02 | 0.02 | 97 | 1010.0 |